Berlin, NH

2:45 PM EDT on September 21, 2017 (GMT -0400)
Berlin Municipal

Weather History for KBML - January, 2003

Change the Weather History Date:

Tuesday, January 7, 2003

  Actual Average Record
Temperature  
Mean Temperature 11 °F -  
Max Temperature 21 °F 23 °F 39 °F (2007)
Min Temperature 1 °F 3 °F -11 °F (2015)
Degree Days  
Heating Degree Days 54    
Moisture  
Dew Point 10 °F    
Average Humidity 80    
Maximum Humidity 93    
Minimum Humidity 63    
Precipitation  
Precipitation 0.00 in - - ()
Sea Level Pressure  
Sea Level Pressure 29.70 in    
Wind  
Wind Speed 3 mph (NW)    
Max Wind Speed 10 mph    
Max Gust Speed 16 mph    
Visibility 9 miles    
Events Snow    
Averages and records for this station are not official NWS values.
T = Trace of Precipitation, MM = Missing Value Source: NWS Daily Summary

Daily Weather History Graph

Daily Weather History Graph

Search for Another Location

Airport or City:

Trip Planner

Search our weather history database for the weather conditions in past years. The results will help you decide how hot, cold, wet, or windy it might be!

Date:

Astronomy

Jan. 07, 2003 Rise Set
Actual Time 7:21 AM EST 4:20 PM EST
Civil Twilight 6:48 AM EST 4:54 PM EST
Nautical Twilight 6:11 AM EST 5:30 PM EST
Astronomical Twilight 5:36 AM EST 6:05 PM EST
Moon 10:33 AM EST (1/7) 9:35 PM EST (1/7)
Length of Visible Light 10h 05m
Length of Day
8h 59m
Waxing Crescent, 24% of the Moon is Illuminated
Jan 7
Waxing Crescent
Jan 10
First Quarter
Jan 18
Full
Jan 25
Last Quarter
Feb 1
New

Hourly Weather History & Observations

Time (EST) Temp. Windchill Dew Point Humidity Pressure Visibility Wind Dir Wind Speed Gust Speed Precip Events Conditions
12:52 AM 19.0 °F 11.1 °F 12.0 °F 74% 29.88 in 6.0 mi NW 5.8 mph - 0.00 in Snow Light Snow
1:52 AM 19.0 °F - 10.9 °F 71% 29.88 in 10.0 mi Calm Calm - 0.00 in   Overcast
2:52 AM 17.1 °F - 15.1 °F 92% 29.87 in 10.0 mi Calm Calm - N/A   Overcast
3:52 AM 17.1 °F - 15.1 °F 92% 29.86 in 10.0 mi Calm Calm - N/A   Overcast
4:34 AM 17.6 °F - 15.8 °F 93% 29.79 in 8.0 mi Calm Calm - N/A   Overcast
4:52 AM 18.0 °F - 15.1 °F 88% 29.85 in 9.0 mi Calm Calm - N/A   Overcast
5:20 AM 17.6 °F - 15.8 °F 93% 29.79 in 10.0 mi Calm Calm - N/A   Overcast
5:52 AM 19.0 °F 12.3 °F 14.0 °F 81% 29.86 in 7.0 mi NW 4.6 mph - 0.00 in Snow Light Snow
6:06 AM 19.4 °F 12.8 °F 14.0 °F 80% 29.79 in 8.0 mi NW 4.6 mph - 0.00 in Snow Light Snow
6:52 AM 18.0 °F 12.7 °F 14.0 °F 84% 29.86 in 7.0 mi WNW 3.5 mph - 0.00 in Snow Light Snow
7:52 AM 18.0 °F - 12.9 °F 81% 29.84 in 10.0 mi Calm Calm - 0.00 in   Overcast
8:52 AM 19.0 °F 13.9 °F 12.9 °F 77% 29.84 in 10.0 mi Variable 3.5 mph - N/A   Overcast
9:52 AM 19.9 °F 14.9 °F 12.9 °F 74% 29.82 in 10.0 mi NNW 3.5 mph - N/A   Overcast
10:52 AM 19.9 °F 13.4 °F 15.1 °F 81% 29.78 in 5.0 mi NW 4.6 mph - 0.00 in Snow Light Snow
11:27 AM 21.2 °F 12.6 °F 10.4 °F 63% 29.69 in 10.0 mi NNW 6.9 mph - 0.00 in   Overcast
11:41 AM 21.2 °F 11.7 °F 12.2 °F 68% 29.68 in 10.0 mi NNW 8.1 mph - 0.00 in   Overcast
11:52 AM 21.0 °F 12.4 °F 12.0 °F 68% 29.73 in 10.0 mi NNW 6.9 mph - 0.00 in   Overcast
12:03 PM 21.2 °F 14.9 °F 14.0 °F 74% 29.67 in 9.0 mi Variable 4.6 mph - N/A   Overcast
12:52 PM 21.0 °F 10.6 °F 12.0 °F 68% 29.71 in 10.0 mi NNW 9.2 mph - 0.00 in   Overcast
1:16 PM 21.2 °F 14.9 °F 12.2 °F 68% 29.63 in 10.0 mi NNW 4.6 mph - N/A   Overcast
1:52 PM 19.9 °F 12.1 °F 10.9 °F 68% 29.67 in 10.0 mi NW 5.8 mph - N/A   Overcast
3:52 PM 19.9 °F 8.6 °F 12.0 °F 71% 29.64 in 10.0 mi West 10.4 mph 16.1 mph 0.00 in   Overcast
4:52 PM 16.0 °F 10.4 °F 10.0 °F 77% 29.62 in 10.0 mi Variable 3.5 mph - N/A   Mostly Cloudy
5:00 PM 15.8 °F - 10.4 °F 79% 29.56 in 10.0 mi Calm Calm - N/A   Scattered Clouds
5:52 PM 12.0 °F 4.1 °F 10.0 °F 92% 29.59 in 10.0 mi NNW 4.6 mph - N/A   Clear
6:52 PM 7.0 °F -3.3 °F 3.9 °F 87% 29.55 in 10.0 mi ENE 5.8 mph - N/A   Clear
7:52 PM 3.0 °F - -0.9 °F 84% 29.53 in 10.0 mi Calm Calm - N/A   Clear
8:52 PM 1.0 °F - -2.0 °F 87% 29.52 in 10.0 mi Calm Calm - N/A   Clear
9:52 PM 1.0 °F - -2.0 °F 87% 29.48 in 10.0 mi Calm Calm - N/A   Clear
10:52 PM 5.0 °F - -0.0 °F 80% 29.44 in 10.0 mi Calm Calm - N/A   Partly Cloudy
11:52 PM 6.1 °F - 1.9 °F 83% 29.38 in 10.0 mi Calm Calm - N/A   Overcast